Location: Krasnoyarskiy
(51.1133°N, 71.6497°E)
Time: 13:34:08
(UTC+00:00)

Cosmos 1346 Rocket - Visible Passes

Search period start: 21 March 2023 00:00
Search period end: 31 March 2023 00:00
Orbit: 522 x 537 km, 81.2° (Epoch: 21 March)

Date Brightness Start Highest point End Pass type
(mag) Time Alt. Az. Time Alt. Az. Time Alt. Az.
21 Mar 4.5 00:11:20 14° W 00:12:33 16° WNW 00:15:00 10° NNW visible
21 Mar 3.4 22:25:43 55° ENE 22:25:43 55° ENE 22:29:16 10° NNE visible
22 Mar 4.5 00:01:02 15° WNW 00:01:56 16° WNW 00:04:29 10° NNW visible
22 Mar 3.6 22:15:23 48° ENE 22:15:23 48° ENE 22:18:38 10° NNE visible
22 Mar 4.4 23:50:41 17° WNW 23:51:17 17° WNW 23:53:56 10° NNW visible
23 Mar 3.9 22:04:59 42° NE 22:04:59 42° NE 22:08:00 10° NNE visible
23 Mar 4.4 23:40:18 18° WNW 23:40:39 18° WNW 23:43:23 10° NNW visible
24 Mar 4.2 21:54:35 37° NE 21:54:35 37° NE 21:57:20 10° NNE visible
24 Mar 4.4 23:29:52 18° WNW 23:29:58 18° WNW 23:32:48 10° NNW visible
25 Mar 4.4 21:44:07 34° NE 21:44:07 34° NE 21:46:40 10° NNE visible
25 Mar 4.4 23:19:25 19° WNW 23:19:25 19° WNW 23:22:12 10° NNW visible
26 Mar 4.6 21:33:38 30° NE 21:33:38 30° NE 21:35:59 10° NNE visible
26 Mar 4.4 23:08:56 20° WNW 23:08:56 20° WNW 23:11:36 10° NNW visible
27 Mar 4.7 21:23:06 28° NE 21:23:06 28° NE 21:25:17 10° NNE visible
27 Mar 4.4 22:58:25 20° NW 22:58:25 20° NW 23:00:58 10° NNW visible
28 Mar 4.9 21:12:34 26° NE 21:12:34 26° NE 21:14:35 10° NNE visible
28 Mar 4.4 22:47:52 21° NW 22:47:52 21° NW 22:50:19 10° NNW visible
29 Mar 5.0 21:01:59 24° NE 21:01:59 24° NE 21:03:51 10° NNE visible
29 Mar 4.5 22:37:17 21° NW 22:37:17 21° NW 22:39:40 10° NNW visible
30 Mar 5.1 20:51:23 22° NE 20:51:23 22° NE 20:53:06 10° NNE visible
30 Mar 4.5 22:26:41 22° NW 22:26:41 22° NW 22:29:00 10° N visible
